Tracking 28238 objects as of 28-Nov-2023
HD Live streaming from Space Station
objects crossing your sky now

STARLINK-3937

Track STARLINK-3937 now!
10-day predictions
STARLINK-3937 is classified as:


NORAD ID: 52542
Int'l Code: 2022-051K
Perigee: 545.4 km
Apogee: 548.3 km
Inclination: 53.2 °
Period: 95.4 minutes
Semi major axis: 6917 km
RCS: Unknown
Launch date: May 13, 2022
Source: United States (US)
Launch site: AIR FORCE WESTERN TEST RANGE (AFWTR)
Your satellite tracking list
Your tracking list is empty




NASA's NSSDC Master Catalog

Two Line Element Set (TLE):
1 52542U 22051K   23332.04294830  .00003636  00000-0  24639-3 0  9996
2 52542  53.2188 267.0230 0002054  59.2091 300.9103 15.08849126 85816
Source of the keplerian elements: AFSPC